JIELONG 3 DEB, 62575

Orbit data source: Space-Track

JIELONG 3 DEB, 62575 is space debris in LEO originally from a launch on Mon, 13 Jan 2025 UTC launched from the Yellow Sea Launch Area, China (YSLA). Debris objects in space refer to the collection of defunct objects orbiting the Earth. Examples of debris include non-operational satellites, rocket bodies, and fragments generated from explosions, collisions, or faulty payload assembly.

Loading next visibility...
JIELONG 3 DEB details
Identifier
62575, 2025-007A
Orbit
LEO
Last TLE update15 hours ago
Origin
Flag of CNChangzheng H. (CN / PRC)
ManufacturerChangzheng H.
MissionSpacecraft
Bus & MotorUnknown
Mass~100 kg wet, ~100 kg dry
Launch date (UTC)
2025-01-13 (3 weeks ago)
Launch vehicleUnknown
Launch site
Yellow Sea Launch Area, China (YSLA)
Object type
Payload
Rocket body
Debris
Shape & HBRUnknown
Radar Cross SectionMedium (>0.1 m² and <1 m²)

Expand to show TLE details & history

TLE from 15 hours ago
0 JIELONG 3 DEB
1 62575U 25007A   25035.54819458  .00004326  00000-0  68140-3 0  9995
2 62575  54.9849  36.8864 0011289 325.7090  34.3179 14.74133660  3317
Epoch: 2025-02-04T13:09Z
Definitive object data (Epoch: 2025-02-04T13:09:24.011Z)
Latitude-0.00004°
Longitude64.58442°
Altitude642.422 km
Speed7.541 km/s
True Right ascension02h 27m 32s
True Declination0° 00' 00"
Sunlit
Object was in daylight at TLE epoch
Visualization TLE readout
Latitude43.59629°
Longitude103.61962°
Altitude652.452 km
Speed7.537 km/s
Apparent Right ascension00h 08m 12s
Apparent Declination29° 05' 01"
Sunlit
Object is in full shadow
Visualization observer readout
Local Sidereal Time06:05:25
Azimuth292.726° NW
Elevation18.666°
Doppler factor1
Orbital elements
Apogee altitude655.8 km
Perigee altitude639.937 km
Semi-major axis7,026.005 km
Eccentricity0.0011289
Inclination54.9849°
RAAN36.8864°
Arg. of periapsis325.709°
True anomaly34.39092°
Mean anomaly34.3179°
Eccentric anomaly34.3544°
Mean motion3.68536 °/min
BSTAR0.0006814
Orbital period97.68 mins
Loading maneuver chart data...
Loading historical data...
Loading historical data...
Loading historical data...
Loading historical data...
Loading historical data...
Loading historical data...
Loading historical data...

JIELONG 3 DEB Visibility forecast

Observer location: undefined°, undefined

Span
Click to sort rows by Start time (UTC) header in descending order
Start Az.
Max El. time (UTC)
Max El. Az.
Max El.
End time (UTC)
End Az.
6 mins2025-02-05 04:03:38.038Z292.347° WNW2025-02-05 04:05:38.038Z328.517° NNW23.523°2025-02-05 04:09:38.038Z28.655° NE
4 mins2025-02-05 07:30:38.038Z355.333° N2025-02-05 07:31:38.038Z10.128° NNE15.949°2025-02-05 07:34:38.038Z52.84° ENE
7 mins2025-02-05 09:11:38.038Z328.222° NNW2025-02-05 09:14:38.038Z39.213° NE38.291°2025-02-05 09:18:38.038Z113.048° SE
6 mins2025-02-05 10:53:38.038Z274.667° WNW2025-02-05 10:55:38.038Z240.74° WSW22.834°2025-02-05 10:59:38.038Z180.702° SSW
6 mins2025-02-06 01:06:38.038Z165.305° S2025-02-06 01:08:38.038Z132.899° SE21.502°2025-02-06 01:12:38.038Z73.116° E
7 mins2025-02-06 02:47:38.038Z252.437° W2025-02-06 02:50:38.038Z339.008° N38.563°2025-02-06 02:54:38.038Z39.02° NE
|